Tracking 18987 objects as of 25-Feb-2018
HD Live streaming from Space Station
objects crossing your sky now

METEOR 1-14

Track METEOR 1-14 now!
10-day predictions
METEOR 1-14 is classified as:


NORAD ID: 6392
Int'l Code: 1973-015A
Perigee: 857.3 km
Apogee: 892.3 km
Inclination: 81.2 °
Period: 102.3 minutes
Semi major axis: 7245 km
RCS: 4.8967 m2 (large)
Launch date: March 20, 1973
Source: Commonwealth of Independent States (former USSR) (CIS)
Launch site: PLESETSK MISSILE AND SPACE COMPLEX (PKMTR)
aabbcc
Your satellite tracking list
Your tracking list is empty




NASA's NSSDC Master Catalog

Two Line Element Set (TLE):
1 06392U 73015A   18055.86676494  .00000059  00000-0  27607-4 0  9995
2 06392  81.2482 352.0665 0024169 184.9233 175.1703 14.07576087306015
Source of the keplerian elements: AFSPC